Regional Weather Roundup
Issued by NWS

Home | Current Version | Previous Version | Graphics & Text | Print | Product List | Glossary On
Versions: 1 2 3 4 5 6 7 8 9 10 11 12 13 14 15 16 17 18 19 20 21 22 23 24 25 26 27 28 29 30 31 32 33 34 35 36 37 38 39 40 41 42 43 44 45 46 47 48 49 50
000
ASUS43 KLMK 312202
RWRKY
KENTUCKY REGIONAL WEATHER ROUNDUP
NATIONAL WEATHER SERVICE LOUISVILLE KY
600 PM EDT THU JUL 31 2014

NOTE "FAIR" INDICATES FEW OR NO CLOUDS BELOW 12,000 FEET
WITH NO SIGNIFICANT WEATHER AND/OR OBSTRUCTIONS TO VISIBILITY.

KYZ001>023-026-027-061>063-070>075-312300-
WESTERN AND SOUTH CENTRAL KENTUCKY

CITY           SKY/WX    TMP DP  RH WIND       PRES   REMARKS
PADUCAH        MOSUNNY   83  63  50 SW12      30.06F
HENDERSON      MOSUNNY  N/A N/A N/A MISG        N/A
OWENSBORO      MOSUNNY   82  59  45 VRB5      30.06F
HOPKINSVILLE   PTSUNNY   82  55  38 CALM      30.06F
BOWLING GREEN  MOSUNNY   84  52  33 VRB3      30.06F
GLASGOW        PTSUNNY   83  53  34 CALM      30.07F
$$

KYZ024-025-028>034-038-045-046-053-312300-
NORTH CENTRAL KENTUCKY

CITY           SKY/WX    TMP DP  RH WIND       PRES   REMARKS
LOUISVILLE/SDF MOSUNNY   84  54  35 VRB6      30.06F
LOUISVILLE/LOU MOSUNNY   84  52  33 VRB5      30.06F
FORT KNOX      MOSUNNY   82  53  36 NW5       30.07F
$$

KYZ035>037-039>044-047>052-055>060-089>105-312300-
NORTHEAST KENTUCKY

CITY           SKY/WX    TMP DP  RH WIND       PRES   REMARKS
LEXINGTON      SUNNY     82  57  42 W5        30.09S
COVINGTON      PTSUNNY   81  59  47 W6        30.08S
FRANKFORT      SUNNY     81  52  36 VRB5      30.07F
$$

KYZ054-064>069-076>088-106>120-312300-
SOUTHEAST KENTUCKY

CITY           SKY/WX    TMP DP  RH WIND       PRES   REMARKS
JACKSON        SUNNY     80  56  43 CALM      30.11F
LONDON         MOSUNNY   82  55  39 N6        30.11S
SOMERSET       SUNNY     81  54  39 CALM      30.10S
MIDDLESBORO    MOSUNNY   82  59  44 SW5       30.10S
MONTICELLO     CLEAR     82  62  50 CALM      30.11S
$$




USA.gov is the U.S. government's official web portal to all federal, state and local government web resources and services.